TimeCST,TemperatureF,Dew PointF,Humidity,Sea Level PressureIn,VisibilityMPH,Wind Direction,Wind SpeedMPH,Gust SpeedMPH,PrecipitationIn,Events,Conditions,WindDirDegrees,DateUTC
12:55 AM,33.1,30.6,90,30.36,10.0,North,5.8,-,N/A,,Clear,350,2013-01-07 06:55:00
1:55 AM,31.8,29.7,92,30.36,10.0,NNW,3.5,-,N/A,,Clear,330,2013-01-07 07:55:00
2:55 AM,30.4,28.4,92,30.36,10.0,NW,3.5,-,N/A,,Clear,320,2013-01-07 08:55:00
3:55 AM,30.7,29.1,94,30.36,10.0,Calm,Calm,-,N/A,,Clear,0,2013-01-07 09:55:00
4:36 AM,26.6,24.8,93,30.37,4.0,Calm,Calm,-,N/A,,Clear,0,2013-01-07 10:36:00
4:37 AM,26.6,24.8,93,30.37,3.0,Calm,Calm,-,N/A,,Clear,0,2013-01-07 10:37:00
4:38 AM,26.6,24.8,93,30.37,2.5,Calm,Calm,-,N/A,,Clear,0,2013-01-07 10:38:00
4:40 AM,26.6,24.8,93,30.37,1.8,Calm,Calm,-,N/A,,Clear,0,2013-01-07 10:40:00
4:44 AM,26.6,26.6,100,30.37,2.0,Calm,Calm,-,N/A,,Clear,0,2013-01-07 10:44:00
4:48 AM,26.6,26.6,100,30.37,3.0,Calm,Calm,-,N/A,,Clear,0,2013-01-07 10:48:00
4:49 AM,26.6,26.6,100,30.37,4.0,Calm,Calm,-,N/A,,Clear,0,2013-01-07 10:49:00
4:50 AM,26.6,26.6,100,30.37,5.0,Calm,Calm,-,N/A,,Clear,0,2013-01-07 10:50:00
4:55 AM,27.1,25.9,95,30.37,4.0,North,4.6,-,N/A,,Clear,10,2013-01-07 10:55:00
5:01 AM,28.4,26.6,93,30.37,5.0,NNE,6.9,-,N/A,,Clear,20,2013-01-07 11:01:00
5:55 AM,28.9,27.9,96,30.39,10.0,North,3.5,-,N/A,,Clear,350,2013-01-07 11:55:00
6:55 AM,29.1,28.0,96,30.37,10.0,NNE,11.5,-,N/A,,Clear,20,2013-01-07 12:55:00
7:55 AM,30.6,28.9,94,30.40,10.0,North,5.8,-,N/A,,Clear,10,2013-01-07 13:55:00
8:55 AM,34.7,30.2,84,30.41,10.0,NE,4.6,-,N/A,,Clear,40,2013-01-07 14:55:00
9:55 AM,38.1,30.9,75,30.41,10.0,NNE,3.5,-,N/A,,Clear,20,2013-01-07 15:55:00
10:55 AM,42.8,30.7,62,30.40,10.0,Calm,Calm,-,N/A,,Clear,0,2013-01-07 16:55:00
11:55 AM,45.3,31.3,58,30.36,10.0,Calm,Calm,-,N/A,,Clear,0,2013-01-07 17:55:00
12:55 PM,48.0,30.6,51,30.32,10.0,Calm,Calm,-,N/A,,Clear,0,2013-01-07 18:55:00
1:55 PM,50.9,30.4,45,30.30,10.0,Variable,4.6,-,N/A,,Clear,0,2013-01-07 19:55:00
2:55 PM,52.3,29.5,42,30.29,10.0,Calm,Calm,-,N/A,,Clear,0,2013-01-07 20:55:00
3:55 PM,52.7,30.2,42,30.29,10.0,Calm,Calm,-,N/A,,Clear,0,2013-01-07 21:55:00
4:55 PM,50.2,30.4,47,30.28,10.0,Calm,Calm,-,N/A,,Clear,0,2013-01-07 22:55:00
5:55 PM,39.4,33.1,78,30.28,10.0,Calm,Calm,-,N/A,,Clear,0,2013-01-07 23:55:00
6:55 PM,35.4,32.2,88,30.29,10.0,Calm,Calm,-,N/A,,Clear,0,2013-01-08 00:55:00
7:55 PM,33.3,30.7,90,30.28,10.0,Calm,Calm,-,N/A,,Clear,0,2013-01-08 01:55:00
8:55 PM,31.6,29.8,93,30.28,10.0,Calm,Calm,-,N/A,,Clear,0,2013-01-08 02:55:00
9:55 PM,31.1,29.5,94,30.27,10.0,Calm,Calm,-,N/A,,Clear,0,2013-01-08 03:55:00
10:55 PM,30.7,29.5,95,30.27,10.0,Calm,Calm,-,N/A,,Clear,0,2013-01-08 04:55:00
11:55 PM,29.8,28.6,95,30.27,10.0,Calm,Calm,-,N/A,,Clear,0,2013-01-08 05:55:00